Date String (YYYY-MM-DD hh:mm:ss) UTC,Instrument flags,Ambient pressure (hPa),Sample flow (lpm),Bypass flow (lpm),Sample temperature (°C),Ambient temperature (°C),ASC tube jacket temperature (°C),LED temperature (°C),Box temperature (°C),Sample RH (%),Span deviation,Mass concentration (μg/m³),Mass concentration (μg/m³),Mass concentration (μg/m³)
DateTimeUTC,F1_M11,P_M11,Q1_M11,Q2_M11,T1_M11,T2_M11,T3_M11,T4_M11,T5_M11,U1_M11,ZSPAN_M11,X0_M11,X2_M11,X1_M11
2022-05-29 13:00:00,,0814.0,5.00,0.00,29.3,28.3,00.0,38.2,31.2,13.5,0000.0,0002.51,0001.18,0000.61
2022-05-29 13:01:00,,0814.0,5.00,0.00,29.3,28.3,00.0,38.2,31.2,13.9,0000.0,0002.69,0001.21,0000.63
2022-05-29 13:02:00,,0814.0,5.00,0.00,29.4,28.3,00.0,38.2,31.2,14.1,0000.0,0002.74,0001.23,0000.63
2022-05-29 13:03:00,,0814.0,5.00,0.00,29.4,28.4,00.0,38.2,31.2,14.1,0000.0,0003.86,0001.23,0000.63
2022-05-29 13:04:00,,0814.0,5.00,0.00,29.4,28.4,00.0,38.3,31.2,13.8,0000.0,0004.62,0001.19,0000.62
2022-05-29 13:05:00,,0814.0,5.00,0.00,29.4,28.4,00.0,38.3,31.2,13.9,0000.0,0004.85,0001.16,0000.62
2022-05-29 13:06:00,,0814.0,5.00,0.00,29.4,28.3,00.0,38.3,31.2,14.0,0000.0,0004.84,0001.16,0000.63
2022-05-29 13:07:00,,0814.1,5.01,0.00,29.3,28.3,00.0,38.3,31.2,13.7,0000.0,0004.78,0001.13,0000.63
2022-05-29 13:08:00,,0814.1,5.01,0.00,29.3,28.3,00.0,38.3,31.2,13.7,0000.0,0005.16,0001.13,0000.65
2022-05-29 13:09:00,,0814.0,4.99,0.00,29.3,28.3,00.0,38.3,31.2,13.7,0000.0,0005.51,0001.13,0000.67
2022-05-29 13:10:00,,0813.9,4.99,0.00,29.3,28.3,00.0,38.3,31.1,13.7,0000.0,0005.51,0001.15,0000.68
2022-05-29 13:11:00,,0813.8,5.01,0.00,29.3,28.3,00.0,38.3,31.2,13.7,0000.0,0005.45,0001.19,0000.70
2022-05-29 13:12:00,,0813.9,5.00,0.00,29.3,28.3,00.0,38.3,31.1,13.6,0000.0,0005.33,0001.22,0000.70
2022-05-29 13:13:00,,0814.0,5.00,0.00,29.3,28.3,00.0,38.3,31.1,13.5,0000.0,0005.34,0001.22,0000.72
2022-05-29 13:14:00,,0813.8,4.99,0.00,29.3,28.3,00.0,38.3,31.1,13.6,0000.0,0004.32,0001.22,0000.72
2022-05-29 13:15:00,,0813.9,5.00,0.00,29.3,28.2,00.0,38.3,31.1,13.8,0000.0,0003.45,0001.21,0000.72
2022-05-29 13:16:00,,0813.8,5.00,0.00,29.3,28.2,00.0,38.3,31.1,13.8,0000.0,0003.14,0001.24,0000.72
2022-05-29 13:17:00,,0813.9,5.00,0.00,29.3,28.3,00.0,38.3,31.1,13.8,0000.0,0003.26,0001.25,0000.70
2022-05-29 13:18:00,,0813.8,5.00,0.00,29.3,28.3,00.0,38.3,31.1,14.2,0000.0,0003.23,0001.24,0000.69
2022-05-29 13:19:00,,0813.8,4.99,0.00,29.3,28.3,00.0,38.3,31.1,14.0,0000.0,0003.18,0001.22,0000.68
2022-05-29 13:20:00,,0813.8,5.00,0.00,29.3,28.2,00.0,38.3,31.1,14.1,0000.0,0003.02,0001.22,0000.66
2022-05-29 13:21:00,,0813.8,5.00,0.00,29.3,28.2,00.0,38.3,31.1,14.6,0000.0,0003.09,0001.22,0000.66
2022-05-29 13:22:00,,0813.7,5.00,0.00,29.3,28.2,00.0,38.2,31.1,14.4,0000.0,0003.11,0001.24,0000.65
2022-05-29 13:23:00,,0813.8,5.00,0.00,29.3,28.3,00.0,38.3,31.2,14.0,0000.0,0003.11,0001.21,0000.64
2022-05-29 13:24:00,,0813.7,4.99,0.00,29.3,28.3,00.0,38.3,31.2,14.3,0000.0,0003.12,0001.20,0000.63
2022-05-29 13:25:00,,0813.7,4.99,0.00,29.3,28.3,00.0,38.3,31.1,14.5,0000.0,0003.10,0001.18,0000.62
2022-05-29 13:26:00,,0813.7,4.99,0.00,29.3,28.2,00.0,38.3,31.1,14.4,0000.0,0003.02,0001.13,0000.61
2022-05-29 13:27:00,,0814.0,5.01,0.00,29.3,28.2,00.0,38.3,31.1,14.3,0000.0,0002.89,0001.08,0000.60
2022-05-29 13:28:00,,0813.8,4.99,0.00,29.3,28.2,00.0,38.3,31.0,14.4,0000.0,0002.71,0001.00,0000.59
2022-05-29 13:29:00,,0814.0,5.01,0.00,29.2,28.1,00.0,38.3,31.0,14.4,0000.0,0002.69,0000.99,0000.58
2022-05-29 13:30:00,,0813.5,4.99,0.00,29.2,28.1,00.0,38.2,30.9,14.7,0000.0,0002.51,0000.97,0000.58
2022-05-29 13:31:00,,0813.5,5.00,0.00,29.2,28.0,00.0,38.2,30.9,14.4,0000.0,0001.93,0000.94,0000.58
2022-05-29 13:32:00,,0813.5,5.00,0.00,29.1,28.0,00.0,38.2,30.9,14.3,0000.0,0001.76,0000.92,0000.56
2022-05-29 13:33:00,,0813.5,4.99,0.00,29.1,28.0,00.0,38.2,30.8,14.3,0000.0,0001.61,0000.85,0000.56
2022-05-29 13:34:00,,0813.5,5.00,0.00,29.1,27.9,00.0,38.2,30.8,14.7,0000.0,0001.59,0000.85,0000.57
2022-05-29 13:35:00,,0813.5,5.01,0.00,29.1,27.9,00.0,38.2,30.8,14.7,0000.0,0001.51,0000.84,0000.57
2022-05-29 13:36:00,,0813.4,5.00,0.00,29.0,27.9,00.0,38.2,30.8,14.5,0000.0,0001.47,0000.84,0000.57
2022-05-29 13:37:00,,0813.4,5.00,0.00,29.0,27.8,00.0,38.1,30.7,14.5,0000.0,0001.52,0000.87,0000.58
2022-05-29 13:38:00,,0813.4,5.00,0.00,29.0,27.8,00.0,38.1,30.7,14.6,0000.0,0001.57,0000.90,0000.59
2022-05-29 13:39:00,,0813.4,5.01,0.00,29.0,27.8,00.0,38.1,30.7,14.8,0000.0,0001.57,0000.94,0000.60
2022-05-29 13:40:00,,0813.5,5.01,0.00,29.0,27.8,00.0,38.1,30.7,14.9,0000.0,0001.84,0001.01,0000.60
2022-05-29 13:41:00,,0813.4,5.00,0.00,29.0,27.8,00.0,38.1,30.7,15.4,0000.0,0001.77,0001.00,0000.60
2022-05-29 13:42:00,,0813.4,5.00,0.00,28.9,27.8,00.0,38.1,30.7,15.1,0000.0,0001.70,0000.97,0000.60
2022-05-29 13:43:00,,0813.3,5.01,0.00,28.9,27.7,00.0,38.0,30.7,15.0,0000.0,0001.73,0000.97,0000.61
2022-05-29 13:44:00,,0813.3,5.01,0.00,28.9,27.7,00.0,38.0,30.6,15.0,0000.0,0001.77,0000.99,0000.61
2022-05-29 13:45:00,,0813.3,5.00,0.00,28.9,27.7,00.0,38.0,30.6,14.8,0000.0,0001.73,0000.97,0000.60
2022-05-29 13:46:00,,0813.3,5.00,0.00,28.9,27.7,00.0,38.0,30.6,14.9,0000.0,0001.72,0000.96,0000.60
2022-05-29 13:47:00,,0813.3,5.00,0.00,28.8,27.6,00.0,38.0,30.6,15.4,0000.0,0001.89,0001.04,0000.61
2022-05-29 13:48:00,,0813.4,5.00,0.00,28.8,27.6,00.0,38.0,30.5,15.2,0000.0,0001.87,0001.04,0000.61
2022-05-29 13:49:00,,0813.4,5.01,0.00,28.8,27.6,00.0,37.9,30.5,15.0,0000.0,0001.86,0001.02,0000.60
2022-05-29 13:50:00,,0813.3,5.00,0.00,28.8,27.5,00.0,37.9,30.5,15.3,0000.0,0001.78,0001.01,0000.60
2022-05-29 13:51:00,,0813.4,5.01,0.00,28.7,27.5,00.0,37.9,30.5,15.3,0000.0,0001.57,0000.97,0000.60
2022-05-29 13:52:00,,0813.3,4.99,0.00,28.7,27.5,00.0,37.9,30.4,15.5,0000.0,0001.60,0000.99,0000.60
2022-05-29 13:53:00,,0813.4,4.99,0.00,28.7,27.5,00.0,37.9,30.4,15.1,0000.0,0001.68,0001.02,0000.60
2022-05-29 13:54:00,,0813.3,5.00,0.00,28.7,27.5,00.0,37.8,30.4,14.9,0000.0,0001.64,0001.00,0000.59
2022-05-29 13:55:00,,0813.3,5.01,0.00,28.7,27.5,00.0,37.8,30.4,15.0,0000.0,0001.68,0001.00,0000.58
2022-05-29 13:56:00,,0813.3,5.01,0.00,28.7,27.5,00.0,37.8,30.4,15.7,0000.0,0001.84,0001.02,0000.58
2022-05-29 13:57:00,,0813.3,5.00,0.00,28.7,27.5,00.0,37.8,30.4,16.0,0000.0,0001.80,0001.01,0000.57
2022-05-29 13:58:00,,0813.3,5.00,0.00,28.7,27.5,00.0,37.8,30.4,16.1,0000.0,0001.65,0000.94,0000.55
2022-05-29 13:59:00,,0813.3,5.00,0.00,28.7,27.5,00.0,37.8,30.4,15.1,0000.0,0001.69,0000.94,0000.53
